Regional Weather Roundup
Issued by NWS Grand Forks, ND

Home | Current Version | Previous Version | Graphics & Text | Print | Product List | Glossary On
Versions: 1 2 3 4 5 6 7 8 9 10 11 12 13 14 15 16 17 18 19 20 21 22 23 24 25 26 27 28 29 30 31 32 33 34 35 36 37 38 39 40 41 42 43 44 45 46 47 48 49 50
000
ASUS43 KFGF 241910
RWRFGF
PRAIRIE TO PINES  WEATHER ROUNDUP
NATIONAL WEATHER SERVICE EASTERN NORTH DAKOTA/GRAND FORKS ND
200 PM CDT THU APR 24 2014

 **SATELLITE DATA USED TO AUGMENT SKY COVER AT AUTOMATED STATIONS**
 *****  WEATHER ACROSS EASTERN NORTH DAKOTA  *****

CITY           SKY/WX    TMP DP  RH WIND       PRES   REMARKS
GRAND FORKS    CLOUDY    43  40  89 S7        29.71F
GRAND FRKS AFB NOT AVBL
GRAND FRKS NWS   N/A     41 N/A N/A S6          N/A
DEVILS LAKE    MOSUNNY   48  39  71 S5        29.68F
FARGO          CLOUDY    44  41  89 SW7       29.70F FOG
WAHPETON ARPT  CLOUDY    43  39  87 S7        29.72S
$$

 ***** WEATHER ACROSS CENTRAL AND WESTERN NORTH DAKOTA  *****

CITY           SKY/WX    TMP DP  RH WIND       PRES   REMARKS
BISMARCK       MOSUNNY   63  20  19 W16G26    29.70F
MINOT          SUNNY     58  35  42 W15G25    29.66F
JAMESTOWN      PTSUNNY   61  38  42 NW15      29.65F
MINOT AFB      MOSUNNY   57  41  55 NW16      29.65F
GARRISON         N/A     59  28  30 W20G32    29.68F
WILLISTON      PTSUNNY   54  32  43 W21G26    29.73F
DICKINSON      MOSUNNY   59  20  22 NW20G32   29.71F
HETTINGER      MOSUNNY   60  18  19 W28G37    29.76F
$$

 *****  OTHER AIRPORT OBSERVATIONS IN OUR AREA  *****

CITY           SKY/WX    TMP DP  RH WIND       PRES   REMARKS
WALHALLA         N/A     41  41 100 SE5       29.72F FOG
GRAFTON AIRPOR CLOUDY    41  41 100 S8        29.72F FOG
VALLEY CITY AR MOCLDY    54  43  66 SW7       29.68F
CANDO          CLOUDY    46  41  81 CALM      29.68F
CAVALIER APRT  CLOUDY    41  39  93 S8        29.73R FOG
GWINNER        CLEAR     57  45  62 W7        29.70F
ROLLA          MOCLDY    43  43 100 SE7       29.68F
 ***** THE ABOVE OBSERVATIONS ARE NON NWS ARE NOT QUALITY
       CONTROLLED AND MAY MIS-REPORT RAIN FOR SNOW...
$$

  *****  WEATHER ACROSS NORTHERN MINNESOTA  *****

CITY           SKY/WX    TMP DP  RH WIND       PRES   REMARKS
FLAG ISLAND    LGT RAIN  37  36  93 E7        29.79F
WARROAD        MIX PCPN  39  36  87 E8        29.78F
ROSEAU         RAIN      37  34  87 SE8       29.76F
HALLOCK          N/A     41  37  87 SE9       29.73F
THF RVR FALLS  CLOUDY    37  34  87 E9        29.74F
BAUDETTE       LGT RAIN  39  37  92 SE10      29.79F
WASKISH        LGT RAIN  37  37 100 E10       29.77F
CROOKSTON      CLOUDY    39  39 100 SE6       29.73S
$$
  *****  WEATHER ACROSS CENTRAL AND WEST MINNESOTA  *****

CITY           SKY/WX    TMP DP  RH WIND       PRES   REMARKS
FOSSTON        RAIN      36  36 100 SE5       29.73F
BEMIDJI        HVY RAIN  37  36  96 E9        29.74F
PARK RAPIDS    LGT SNOW  35  34  96 E5        29.72F FOG
ELBOW LAKE     MOCLDY    40  38  92 E6        29.70R
WADENA         RAIN      36  34  93 CALM      29.72F
DETROIT LAKES  LGT RAIN  36  34  93 E5        29.71F
MOORHEAD       CLOUDY    45  45 100 W7        29.71R
FERGUS FALLS   CLOUDY    41  37  87 SE5       29.68R
MORRIS MN      CLOUDY    46  43  87 CALM      29.71R
STAPLES        RAIN      37  36  93 SE3       29.73F
$$
  *****  WEATHER ELSEWHERE ACROSS MINNESOTA  *****

CITY           SKY/WX    TMP DP  RH WIND       PRES   REMARKS
DULUTH         HVY SNOW  33  31  92 E23G31    29.79F VSB 1/4 WCI  21
INTRNTL FALLS  LGT RAIN  38  36  92 E10       29.82S
ELY            FLURRIES  36  34  93 E14       29.85F
CLOQUET        SNOW      34  32  93 E10       29.78F VSB 1/2
WHEATON        CLOUDY    48  46  93 CALM      29.74S
BRAINERD       LGT RAIN  41  34  76 E6        29.75S
HIBBING        RAIN      36  33  89 E13       29.79F FOG
ALEXANDRIA     LGT RAIN  39  37  92 NE7       29.69F
SAINT CLOUD    LGT RAIN  41  38  89 SE5       29.72F
MINNEAPOLIS    LGT RAIN  42  42 100 SE6       29.71S FOG
$$

  *****  WEATHER ACROSS SOUTH DAKOTA  *****

CITY           SKY/WX    TMP DP  RH WIND       PRES   REMARKS
SIOUX FALLS    PTSUNNY   58  44  60 N13       29.74R
BROOKINGS      NOT AVBL
WATERTOWN      MOSUNNY   55  43  63 N7        29.72S
HURON          MOSUNNY   69  21  16 NW23G37   29.70F
SISSETON         N/A     51  45  79 VRB3      29.71S
ABERDEEN       MOSUNNY   63  28  26 NW18G24   29.69F
MITCHELL       SUNNY     70  21  15 NW29G40   29.72F
PIERRE         SUNNY     64  28  25 NW22G36   29.76F
MOBRIDGE       MOSUNNY   63  22  20 NW20      29.70F
RAPID CITY     SUNNY     59  28  30 NE9G17    29.83F
$$

  *****  SOME WEATHER IN NEARBY STATES *****

CITY           SKY/WX    TMP DP  RH WIND       PRES   REMARKS
GLASGOW MT     PTSUNNY   56  28  34 W10       29.75F
GREAT FALLS MT CLOUDY    51  31  46 SW16      29.74F
CHEYENNE WY    PTSUNNY   53  14  21 W20G30    29.94F
SCOTTSBLUFF NE MOSUNNY   63  17  17 W15G23    29.89F
OMAHA NE       CLOUDY    57  48  72 NW17      29.73S
DES MOINES IA  CLOUDY    54  50  86 NW10      29.66S
DAVENPORT IA   CLOUDY    58  48  69 SE12      29.74F
CHICAGO IL     CLOUDY    61  32  33 S23       29.84F
EAU CLAIRE WI  RAIN      43  41  93 SE9       29.73F
LA CROSSE WI   LGT RAIN  45  41  86 SE10      29.71F
$$

  *****  SOME NATIONAL WEATHER *****

CITY           SKY/WX    TMP DP  RH WIND       PRES   REMARKS
LA GUARDIA NY  MOSUNNY   58  15  18 NW18G33   29.87S
RALEIGH NC     PTSUNNY   67  32  27 CALM      30.05F
ATLANTA GA     MOSUNNY   77  48  35 CALM      29.98F
NEW ORLEANS LA PTSUNNY   81  66  60 S12       29.93F
OKLAHOMA CITY  MOSUNNY   75  41  29 NW29G39   29.82R
ALBUQUERQUE NM PTSUNNY   63   9  12 CALM      30.13F
SALT LAKE CITY PTSUNNY   62  20  19 S18G28    29.99F
LOS ANGELES CA MOSUNNY   72  47  40 W13       29.99S
BOISE ID       PTSUNNY   56  41  57 E8        29.93F
SEATTLE WA     PTSUNNY   55  42  61 SW17G24   29.80R
$$

*** WEATHER ACROSS MANITOBA...SASKATCHEWAN AND ONTARIO ***
                ***ONTARIO***

CITY           SKY/WX    TMP DP  RH WIND       PRES   REMARKS
GERALDTON      CLOUDY    52  23  32 S12       30.04F
THUNDER BAY    CLOUDY    43  27  52 E15       30.02F
SIOUX LOOKOUT  CLOUDY    46  27  46 SE14G22   29.92F
TORONTO        MOSUNNY   54  14  20 N9        30.09F
BIG TROUT LK   SUNNY     34  21  60 E14G23    30.15F WCI  24
PICKLE LAKE    PTSUNNY   54  21  28 S10       29.97F
DRYDEN         PTSUNNY   43  30  61 SE15G24   29.87F
KENORA         LGT RAIN  37  36  93 SE10G20   29.83F
$$
                *** MANITOBA***

CITY           SKY/WX    TMP DP  RH WIND       PRES   REMARKS
BRANDON        PTSUNNY   45  41  87 NE3       29.71F
DAUPHIN        LGT RAIN  39  37  93 E12       29.72F
ISLAND LAKE    NOT AVBL
PILOT MOUND      N/A     43  43 100 SE8         N/A
THE PAS        CLOUDY    34  25  69 E16G22    29.90F WCI  23
THOMPSON       PTSUNNY   28  19  69 E22       30.16S WCI  15
WINNIPEG       LGT RAIN  39  37  93 SE12G17   29.77F
LYNN LAKE      MOSUNNY   28  18  64 NE18G24   30.12F WCI  16
CHURCHILL      LGT SNOW  18  14  86 NE7       30.44F WCI   8
GILLAM         MOSUNNY   27  16  63 NE13      30.26F WCI  16
$$
                ***SASKATCHEWAN***

CITY           SKY/WX    TMP DP  RH WIND       PRES   REMARKS
ESTEVAN        PTSUNNY   52  37  58 W15       29.70S
KINDERSLEY     PTSUNNY   43  32  65 NW18G26   29.67R
LLOYDMINSTER   LGT RAIN  37  36  93 NE9       29.67S
PRINCE ALBERT  LGT SNOW  32  30  93 E21G28    29.69S WCI  20
REGINA         PTSUNNY   46  37  71 W15       29.67F
YORKTON        PTSUNNY   43  41  93 E10       29.65S
N. BATTLEFORD  LGT RAIN  37  36  93 E13       29.67S
LA RONGE       CLOUDY    34  23  64 NE20G28   29.89F WCI  22
SASKATOON      LGT RAIN  39  37  93 W8        29.61S
SWIFT CURRENT  MOSUNNY   52  28  40 W22G33    29.65F
$$
NOTE: THESE ARE AUTOMATED STATIONS WITH LIMITED QUALITY CONTROL
      "FAIR" INDICATES FEW OR NO CLOUDS BELOW 12,000 FEET WITH NO
      SIGNIFICANT WEATHER AND/OR OBSTRUCTIONS TO VISIBILITY.
      SKY/WX - SKY CONDITION AND SIGNIFICANT WEATHER.
      TMP - AIR TEMPERATURE.    DP   - DEWPOINT TEMPERATURE.
      RH  - RELATIVE HUMIDITY.  PRES - PRESSURE.
      HX  - HEAT INDEX.         WCI  - WIND CHILL INDEX.
$



USA.gov is the U.S. government's official web portal to all federal, state and local government web resources and services.